Weather History for KBKV - June, 2013

Change the Weather History Date:

Monday, June 3, 2013

  Actual Average Record
Temperature  
Mean Temperature 78 °F -  
Max Temperature 86 °F 87 °F 95 °F (2002)
Min Temperature 73 °F 64 °F 57 °F (1997)
Cooling Degree Days 14    
Growing Degree Days 28 (Base 50)    
Moisture  
Dew Point 73 °F    
Average Humidity 84    
Maximum Humidity 97    
Minimum Humidity 65    
Precipitation  
Precipitation 0.01 in - - ()
Sea Level Pressure  
Sea Level Pressure 29.95 in    
Wind  
Wind Speed 4 mph (SSW)    
Max Wind Speed 13 mph    
Max Gust Speed -    
Visibility 10 miles    
Events Rain    
Averages and records for this station are not official NWS values.
T = Trace of Precipitation, MM = Missing Value Source: NWS Daily Summary

Daily Weather History Graph

Daily Weather History Graph

Search for Another Location

Airport or City:

Trip Planner

Search our weather history database for the weather conditions in past years. The results will help you decide how hot, cold, wet, or windy it might be!

Date:

Astronomy

Jun. 03, 2013 Rise Set
Actual Time 6:32 AM EDT 8:24 PM EDT
Civil Twilight 6:05 AM EDT 8:50 PM EDT
Nautical Twilight 5:33 AM EDT 9:22 PM EDT
Astronomical Twilight 4:59 AM EDT 9:56 PM EDT
Moon 3:08 AM EDT (6/3) 4:11 PM EDT (6/3)
Length of Visible Light 14h 45m
Length of Day
13h 51m
Waning Crescent, 22% of the Moon is Illuminated
Jun 3
Waning Crescent
Jun 8
New
Jun 16
First Quarter
Jun 23
Full
Jun 30
Last Quarter

Hourly Weather History & Observations

Time (EDT) Temp. Heat Index Dew Point Humidity Pressure Visibility Wind Dir Wind Speed Gust Speed Precip Events Conditions
12:53 AM 75.0 °F - 73.0 °F 94% 29.95 in 10.0 mi Calm Calm - N/A   Clear
1:53 AM 75.0 °F - 73.0 °F 94% 29.95 in 10.0 mi SE 3.5 mph - N/A   Mostly Cloudy
2:19 AM 75.2 °F - 73.4 °F 94% 29.95 in 10.0 mi South 3.5 mph - N/A   Scattered Clouds
2:53 AM 73.9 °F - 73.0 °F 97% 29.94 in 10.0 mi SSE 3.5 mph - N/A   Clear
3:53 AM 73.9 °F - 72.0 °F 93% 29.93 in 10.0 mi Calm Calm - N/A   Clear
4:53 AM 73.0 °F - 72.0 °F 96% 29.92 in 10.0 mi Calm Calm - N/A   Clear
5:53 AM 73.0 °F - 72.0 °F 96% 29.93 in 10.0 mi Calm Calm - N/A   Clear
6:53 AM 73.0 °F - 72.0 °F 96% 29.94 in 9.0 mi Calm Calm - N/A   Clear
7:18 AM 73.4 °F - 71.6 °F 94% 29.95 in 10.0 mi ESE 3.5 mph - N/A   Partly Cloudy
7:36 AM 75.2 °F - 73.4 °F 94% 29.96 in 10.0 mi North - - N/A   Mostly Cloudy
7:53 AM 75.0 °F - 73.9 °F 96% 29.96 in 7.0 mi SSE 3.5 mph - N/A   Overcast
8:49 AM 78.8 °F - 75.2 °F 89% 29.97 in 10.0 mi South 3.5 mph - N/A   Scattered Clouds
8:53 AM 79.0 °F - 75.0 °F 88% 29.97 in 10.0 mi SSE 4.6 mph - N/A   Scattered Clouds
9:53 AM 81.0 °F 86.2 °F 73.9 °F 79% 29.98 in 10.0 mi South 9.2 mph - N/A   Clear
10:53 AM 84.0 °F 89.6 °F 72.0 °F 67% 29.97 in 10.0 mi South 5.8 mph - N/A   Scattered Clouds
11:53 AM 84.9 °F 90.7 °F 72.0 °F 65% 29.97 in 10.0 mi SW 6.9 mph - N/A   Mostly Cloudy
12:53 PM 84.9 °F 92.1 °F 73.9 °F 69% 29.96 in 10.0 mi West 6.9 mph - N/A   Mostly Cloudy
1:53 PM 82.0 °F 88.6 °F 75.0 °F 79% 29.95 in 10.0 mi SW 3.5 mph - 0.00 in   Overcast
2:21 PM 84.2 °F 92.3 °F 75.2 °F 74% 29.94 in 10.0 mi Variable 4.6 mph - N/A   Mostly Cloudy
2:53 PM 79.0 °F - 72.0 °F 79% 29.95 in 10.0 mi SW 12.7 mph - N/A Rain Light Rain
3:53 PM 82.0 °F 89.4 °F 75.9 °F 82% 29.93 in 10.0 mi Variable 5.8 mph - 0.01 in   Partly Cloudy
4:53 PM 80.1 °F 84.5 °F 73.9 °F 81% 29.92 in 10.0 mi SSW 10.4 mph - 0.00 in   Mostly Cloudy
5:53 PM 82.9 °F 89.4 °F 73.9 °F 74% 29.92 in 10.0 mi SSW 10.4 mph - N/A   Mostly Cloudy
6:10 PM 82.4 °F 88.2 °F 73.4 °F 74% 29.92 in 10.0 mi SW 12.7 mph - N/A   Overcast
6:29 PM 82.4 °F 88.2 °F 73.4 °F 74% 29.93 in 10.0 mi SW 11.5 mph - N/A   Mostly Cloudy
6:45 PM 80.6 °F 84.6 °F 71.6 °F 74% 29.94 in 10.0 mi SW 11.5 mph - N/A   Mostly Cloudy
6:53 PM 81.0 °F 85.2 °F 72.0 °F 74% 29.94 in 10.0 mi SW 11.5 mph - N/A   Mostly Cloudy
7:02 PM 80.6 °F 84.6 °F 71.6 °F 74% 29.94 in 10.0 mi WSW 10.4 mph - N/A   Overcast
7:11 PM 80.6 °F 84.6 °F 71.6 °F 74% 29.95 in 10.0 mi SW 9.2 mph - N/A   Overcast
7:18 PM 80.6 °F 84.6 °F 71.6 °F 74% 29.94 in 10.0 mi WSW 9.2 mph - N/A   Mostly Cloudy
7:53 PM 80.1 °F 84.2 °F 73.0 °F 79% 29.95 in 10.0 mi WSW 5.8 mph - N/A   Clear
8:53 PM 78.1 °F - 73.0 °F 84% 29.95 in 10.0 mi Calm Calm - N/A   Clear
9:36 PM 77.0 °F - 73.4 °F 89% 29.98 in 10.0 mi SE 8.1 mph - N/A   Mostly Cloudy
9:53 PM 77.0 °F - 73.9 °F 90% 29.99 in 10.0 mi Calm Calm - N/A   Overcast
10:53 PM 77.0 °F - 73.9 °F 90% 30.01 in 10.0 mi SSE 3.5 mph - N/A   Overcast
11:53 PM 77.0 °F - 73.9 °F 90% 30.01 in 10.0 mi Calm Calm - N/A   Overcast